Location: Unspecified
(0.0000°N, 0.0000°E)
Time: 06:41:35
(UTC+00:00)

Vanguard 2 Rocket - Pass Details

Date: 21 January 2020
Orbit: 554 x 3326 km, 32.9° (Epoch: 21 September)

Event Time Altitude Azimuth Distance (km) Brightness Sun altitude
Rises 13:32:11 0° 306° (NW) 5,898 11.1 61.9°
Reaches altitude 10° 13:35:32 10° 306° (NW) 5,183 10.9 61.3°
Maximum altitude 13:52:35 89° 217° (SW) 3,228 10.9 58.2°
Drops below altitude 10° 14:13:07 10° 127° (SE) 6,061 11.1 54.1°
Sets 14:17:25 0° 126° (SE) 6,889 11.3 53.2°
